World > North America > United States > Oklahoma
Hourly Weather in Afton, OklahomaAfton, Oklahoma Hourly Weather

Afton, OK Hourly Weather

Hourly Weather Afton, OklahomaHourly Weather in Afton, OK
Lat: 36.69N, Lon: 94.96W  ICAO: KGMJ
Web Search

Our weather pages are very print friendly and they make great conversation starters.

Feedback

Afton Hourly Weather

36 Hour Weather Scroll   °F Click to change Afton hourly weather to Imperial units.Click to change Afton hourly weather to Metric units. °C
Currently, Clear, temperature is 37°F3°C, dew point 33°F1°C, humidity 86%. Wind direction is S at 3 mph5 km/h with visibility of 10 mile(s) mi16 km. Barometric pressure is 30.13 in1020 mb.

Nov 29
8:00 AM

Nov 29
9:00 AM

Nov 29
10:00 AM

Nov 29
11:00 AM

Nov 29
NOON

Nov 29
1:00 PM

Nov 29
2:00 PM

Nov 29
3:00 PM

Nov 29
4:00 PM

Nov 29
5:00 PM

Nov 29
6:00 PM

Nov 29
7:00 PM

Nov 29
8:00 PM

Nov 29
9:00 PM

Nov 29
10:00 PM

Nov 29
11:00 PM

Nov 30
MIDNIGHT

Nov 30
1:00 AM

Nov 30
2:00 AM

Nov 30
3:00 AM

Nov 30
4:00 AM

Nov 30
5:00 AM

Nov 30
6:00 AM

Nov 30
7:00 AM

Nov 30
8:00 AM

Nov 30
9:00 AM

Nov 30
10:00 AM

Nov 30
11:00 AM

Nov 30
NOON

Nov 30
1:00 PM

Nov 30
2:00 PM

Nov 30
3:00 PM

Nov 30
4:00 PM

Nov 30
5:00 PM

Nov 30
6:00 PM

Nov 30
7:00 PM
Clear Clear Clear Clear Clear Clear Clear Clear Clear Clear Clear Clear Clear Clear Clear Clear Clear Clear Clear Clear Clear Clear Clear Clear Clear Clear Clear Partly Cloudy Partly Cloudy Partly Cloudy Clear Clear Clear Clear Clear Clear
Clear Clear Clear Clear Clear Clear Clear Clear Clear Clear Clear Clear Clear Clear Clear Clear Clear Clear Clear Clear Clear Clear Clear Clear Clear Clear Clear Partly Cloudy Partly Cloudy Partly Cloudy Clear Clear Clear Clear Clear Clear
43°F6°C 48°F9°C 53°F12°C 59°F15°C 64°F18°C 65°F18°C 66°F19°C 67°F19°C 64°F18°C 62°F17°C 59°F15°C 57°F14°C 54°F12°C 52°F11°C 51°F11°C 50°F10°C 49°F9°C 48°F9°C 48°F9°C 47°F8°C 46°F8°C 46°F8°C 45°F7°C 47°F8°C 50°F10°C 52°F11°C 56°F13°C 59°F15°C 63°F17°C 64°F18°C 65°F18°C 66°F19°C 64°F18°C 62°F17°C 60°F16°C 58°F14°C
- - - - - - - - - - - - - - - - - - - - - - - - - - - - - - - - - - - -
0% 0% 0% 0% 0% 1% 1% 1% 1% 1% 1% 0% 0% 0% 0% 0% 0% 0% 0% 0% 0% 0% 0% 0% 0% 0% 0% 0% 0% 1% 1% 1% 1% 1% 1% 0%
36°F2°C 38°F3°C 38°F3°C 37°F3°C 37°F3°C 37°F3°C 37°F3°C 37°F3°C 37°F3°C 38°F3°C 38°F3°C 39°F4°C 40°F4°C 41°F5°C 41°F5°C 42°F6°C 42°F6°C 42°F6°C 41°F5°C 41°F5°C 41°F5°C 41°F5°C 41°F5°C 42°F6°C 44°F7°C 45°F7°C 45°F7°C 45°F7°C 45°F7°C 45°F7°C 44°F7°C 44°F7°C 44°F7°C 45°F7°C 45°F7°C 45°F7°C
76% 68% 57% 44% 37% 35% 34% 33% 37% 41% 46% 51% 59% 66% 68% 74% 77% 80% 77% 80% 83% 83% 86% 83% 80% 77% 66% 60% 52% 50% 47% 45% 48% 54% 58% 62%
S S SSE SSE SW SW SW SW SSE SSE S S S S SSE SSE SW SE ENE N N N N NE E SE ESE E E E E E E ESE SE SE
5 mph 5 mph 5 mph 12 mph 12 mph 12 mph 13 mph 13 mph 13 mph 5 mph 5 mph 5 mph 2 mph 2 mph 2 mph 1 mph 1 mph 1 mph 0 mph 0 mph 0 mph 0 mph 0 mph 0 mph 1 mph 1 mph 1 mph 2 mph 2 mph 2 mph 3 mph 3 mph 3 mph 1 mph 1 mph 1 mph
10 mi16 km 10 mi16 km 10 mi16 km 10 mi16 km 10 mi16 km 10 mi16 km 10 mi16 km 10 mi16 km 10 mi16 km 10 mi16 km 10 mi16 km 10 mi16 km 10 mi16 km 10 mi16 km 10 mi16 km 10 mi16 km 10 mi16 km 10 mi16 km 10 mi16 km 10 mi16 km 10 mi16 km 10 mi16 km 10 mi16 km 10 mi16 km 10 mi16 km 10 mi16 km 10 mi16 km 10 mi16 km 10 mi16 km 10 mi16 km 10 mi16 km 10 mi16 km 10 mi16 km 10 mi16 km 10 mi16 km 10 mi16 km
Hour (CST)
Weather
Clouds
Temperature
Precip. Type
POP
Dewpoint
Humidity
Wind Direction
Wind Speed
Visibility
POP = Probability of Precipitation. ** Indicates missing data/values from model statistics.

24 Hour Forecast

Today - Sunny. Highs in the mid 60s. Southwest winds 10 to 15 mph.
Tonight - Clear. Lows around 40. Light winds.

48 Hour Forecast API Feed


Mon, Nov 29
8:00 am

Mon, Nov 29
9:00 am

Mon, Nov 29
10:00 am

Mon, Nov 29
11:00 am

Mon, Nov 29
Noon

Mon, Nov 29
1:00 pm

Mon, Nov 29
2:00 pm

Mon, Nov 29
3:00 pm

Mon, Nov 29
4:00 pm

Mon, Nov 29
5:00 pm

Mon, Nov 29
6:00 pm

Mon, Nov 29
7:00 pm

Mon, Nov 29
8:00 pm

Mon, Nov 29
9:00 pm

Mon, Nov 29
10:00 pm

Mon, Nov 29
11:00 pm

Tue, Nov 30
Midnight

Tue, Nov 30
1:00 am

Tue, Nov 30
2:00 am

Tue, Nov 30
3:00 am

Tue, Nov 30
4:00 am

Tue, Nov 30
5:00 am

Tue, Nov 30
6:00 am

Tue, Nov 30
7:00 am

Tue, Nov 30
8:00 am

Tue, Nov 30
9:00 am

Tue, Nov 30
10:00 am

Tue, Nov 30
11:00 am

Tue, Nov 30
Noon

Tue, Nov 30
1:00 pm

Tue, Nov 30
2:00 pm

Tue, Nov 30
3:00 pm

Tue, Nov 30
4:00 pm

Tue, Nov 30
5:00 pm

Tue, Nov 30
6:00 pm

Tue, Nov 30
7:00 pm

Tue, Nov 30
8:00 pm

Tue, Nov 30
9:00 pm

Tue, Nov 30
10:00 pm

Tue, Nov 30
11:00 pm

Wed, Dec 1
Midnight

Wed, Dec 1
1:00 am

Wed, Dec 1
2:00 am

Wed, Dec 1
3:00 am

Wed, Dec 1
4:00 am

Wed, Dec 1
5:00 am

Wed, Dec 1
6:00 am

Wed, Dec 1
7:00 am
SunnySunnySunnySunnySunnySunnySunnySunnySunnySunnyClearClearClearClearClearClearClearClearClearClearClearClearClearClearSunnySunnySunnySunnySunnySunnySunnySunnySunnySunnyClearClearClearClearClearClearClearClearClearClearClearClearClearPartly Cloudy
Sunny Sunny Sunny Sunny Sunny Sunny Sunny Sunny Sunny Sunny Clear Clear Clear Clear Clear Clear Clear Clear Clear Clear Clear Clear Clear Clear Sunny Sunny Sunny Sunny Sunny Sunny Sunny Sunny Sunny Sunny Clear Clear Clear Clear Clear Clear Clear Clear Clear Clear Clear Clear Clear Partly cloudy
40°F
5°C
42°F
6°C
47°F
8°C
53°F
12°C
57°F
14°C
60°F
16°C
63°F
17°C
65°F
18°C
65°F
18°C
63°F
17°C
58°F
14°C
56°F
13°C
51°F
11°C
51°F
10°C
50°F
10°C
49°F
10°C
49°F
9°C
48°F
9°C
48°F
9°C
47°F
8°C
47°F
8°C
46°F
8°C
46°F
8°C
46°F
8°C
46°F
8°C
47°F
8°C
52°F
11°C
57°F
14°C
60°F
16°C
64°F
18°C
66°F
19°C
67°F
20°C
67°F
20°C
65°F
18°C
62°F
17°C
59°F
15°C
54°F
12°C
53°F
12°C
53°F
12°C
52°F
11°C
52°F
11°C
53°F
12°C
52°F
11°C
49°F
10°C
47°F
9°C
46°F
8°C
46°F
8°C
45°F
7°C
33°F
0°C
34°F
1°C
36°F
2°C
37°F
3°C
38°F
4°C
39°F
4°C
40°F
5°C
41°F
5°C
43°F
6°C
44°F
7°C
43°F
6°C
42°F
6°C
38°F
4°C
38°F
3°C
38°F
3°C
38°F
3°C
38°F
3°C
38°F
3°C
38°F
3°C
38°F
3°C
38°F
3°C
38°F
3°C
38°F
3°C
38°F
3°C
38°F
3°C
39°F
4°C
41°F
5°C
43°F
6°C
44°F
6°C
45°F
7°C
45°F
7°C
45°F
7°C
46°F
8°C
49°F
9°C
48°F
9°C
49°F
9°C
46°F
8°C
46°F
8°C
45°F
7°C
46°F
8°C
46°F
8°C
46°F
8°C
44°F
7°C
43°F
6°C
43°F
6°C
43°F
6°C
43°F
6°C
41°F
5°C
30.15 in
1021 mb
30.15 in
1021 mb
30.12 in
1020 mb
30.09 in
1019 mb
30.09 in
1019 mb
30.06 in
1018 mb
30.03 in
1017 mb
30 in
1016 mb
29.97 in
1015 mb
29.97 in
1015 mb
30 in
1016 mb
30 in
1016 mb
30 in
1016 mb
30.03 in
1017 mb
30 in
1016 mb
30 in
1016 mb
30.03 in
1017 mb
30.03 in
1017 mb
30.03 in
1017 mb
30.03 in
1017 mb
30.03 in
1017 mb
30 in
1016 mb
30 in
1016 mb
30 in
1016 mb
30.03 in
1017 mb
30.03 in
1017 mb
30.03 in
1017 mb
30.03 in
1017 mb
30.03 in
1017 mb
30 in
1016 mb
30 in
1016 mb
29.97 in
1015 mb
29.97 in
1015 mb
29.97 in
1015 mb
29.94 in
1014 mb
29.97 in
1015 mb
29.97 in
1015 mb
29.97 in
1015 mb
29.97 in
1015 mb
29.97 in
1015 mb
29.97 in
1015 mb
29.97 in
1015 mb
29.97 in
1015 mb
29.97 in
1015 mb
30 in
1016 mb
30 in
1016 mb
30.03 in
1017 mb
30.03 in
1017 mb
74%74%65%56%49%45%43%42%45%49%57%60%62%62%63%64%65%67%69%70%72%72%73%74%75%75%68%59%54%50%47%45%46%55%61%69%73%75%76%79%81%75%76%80%86%90%89%88%
SSSSWSSWSWSWSWSWSWSWSSWSSWSSWSSWSSWSSWSSWSSWSSWSSSSSSSSESSESSSWSSWSSWSWSSWSSWSSESESESSESSESSSWSSWSWWSWWNWNNWNNW
9 mph
14 km/h
10 mph
16 km/h
13 mph
21 km/h
15 mph
25 km/h
17 mph
27 km/h
17 mph
27 km/h
17 mph
27 km/h
16 mph
26 km/h
13 mph
22 km/h
12 mph
19 km/h
9 mph
15 km/h
9 mph
15 km/h
9 mph
14 km/h
8 mph
13 km/h
8 mph
13 km/h
8 mph
13 km/h
7 mph
12 km/h
6 mph
9 km/h
6 mph
9 km/h
6 mph
9 km/h
5 mph
9 km/h
6 mph
10 km/h
7 mph
11 km/h
6 mph
9 km/h
7 mph
11 km/h
6 mph
10 km/h
6 mph
10 km/h
6 mph
10 km/h
4 mph
7 km/h
6 mph
10 km/h
7 mph
11 km/h
4 mph
7 km/h
5 mph
8 km/h
3 mph
5 km/h
6 mph
9 km/h
7 mph
12 km/h
7 mph
11 km/h
8 mph
13 km/h
7 mph
12 km/h
6 mph
10 km/h
5 mph
9 km/h
7 mph
12 km/h
7 mph
12 km/h
7 mph
11 km/h
6 mph
10 km/h
6 mph
10 km/h
6 mph
9 km/h
5 mph
8 km/h
0%0%0%0%0%0%0%0%0%0%0%0%0%0%0%0%0%0%0%0%0%0%0%0%0%0%0%0%0%0%0%0%0%0%0%0%0%0%0%0%0%0%0%0%0%0%0%0%
6 mi
10 km
6 mi
10 km
6 mi
10 km
6 mi
10 km
6 mi
10 km
6 mi
10 km
6 mi
10 km
6 mi
10 km
6 mi
10 km
6 mi
10 km
6 mi
10 km
6 mi
10 km
6 mi
10 km
6 mi
10 km
6 mi
10 km
6 mi
10 km
6 mi
10 km
6 mi
10 km
6 mi
10 km
6 mi
10 km
6 mi
10 km
6 mi
10 km
6 mi
10 km
6 mi
10 km
6 mi
10 km
6 mi
10 km
6 mi
10 km
6 mi
10 km
6 mi
10 km
6 mi
10 km
6 mi
10 km
6 mi
10 km
6 mi
10 km
6 mi
10 km
6 mi
10 km
6 mi
10 km
6 mi
10 km
6 mi
10 km
6 mi
10 km
6 mi
10 km
6 mi
10 km
6 mi
10 km
6 mi
10 km
6 mi
10 km
6 mi
10 km
6 mi
10 km
6 mi
10 km
6 mi
10 km

Day/Time
Weather
Condition
Temperature
Dew Point
Pressure
Humidity
Wind Direction
Wind Speed
Prob Precip %
Visibility
Prob Precip % = Probability of Precipitation.